World > North America > United States > Mississippi

Hourly Pollock, MS Regional Weather

Feedback E-mail the Weather

Quick WX

Pollock, MS Weather Maps

°F °C°F °C
Pollock Weather Map
UTC Time: 6/25/2022, 21:05
Your Time:

Pollock, MS Regional Weather

Expires:202206252100;;181499
ASUS44 KJAN 252010
RWRMS 

MISSISSIPPI HOURLY WEATHER ROUNDUP
NATIONAL WEATHER SERVICE JACKSON MS
300 PM CDT SAT JUN 25 2022

NOTE: "FAIR: INDICATES FEW OR NO CLOUDS BELOW 12,000 FEET WITH NO
SIGNIFICANT WEATHER AND/OR OBSTRUCTIONS TO VISIBILITY.


MSZ001>002-007>008-010>013-018>021-025>028-034>036-252100-
NORTHWEST MISSISSIPPI
  
CITY           SKY/WX    TMP DP  RH WIND       PRES   REMARKS
BATESVILLE     FAIR      97  61  30 VRB6      29.97F HX  97           
CLARKSDALE     SUNNY     97  64  34 NW5       29.98F HX  99           
CLEVELAND      FAIR     N/A N/A N/A NW5       29.98F                  
GREENWOOD      SUNNY     98  67  36 NW6       29.97F HX 102           
GREENVILLE     SUNNY     98  72  42 VRB3      29.97F HX 107           
OLIVE BRANCH   SUNNY     97  61  30 E7        29.99F HX  97           
OXFORD         SUNNY     95  55  26 VRB6G13   30.00F HX  93           
TUNICA         SUNNY     98  65  33 NW12      29.98S HX 100           
WINONA         FAIR      96  64  34 N6        29.97F HX  97           
$$


SKY/WX - Weather  TMP - Temperature  DP - Dew Point  RH - Humidity
WIND - Wind Direction/Speed PRES - Barometric Pressure VSB - Visibility
WCI - Wind Chill Index E13G22 Wind - East Wind 13 mph/Gusts of 22 mph

Trending Headlines

Pollock Radar Loop



Pollock Quick Facts


National Two Day Weather Forecast


E-mail the Pollock Weather Forecast

Voice your opinion or tell us about page issues...